owner,sensor,date,latitude,longitude,sea_surface_height_above_sea_level,qcFlag 
TCOON,ioos:station:TCOON:031:1,2019-11-01T00:18:00Z,28.4073,-96.7122,0.505,11111222 
TCOON,ioos:station:TCOON:031:1,2019-11-01T01:18:00Z,28.4073,-96.7122,0.494,11111222 
TCOON,ioos:station:TCOON:031:1,2019-11-01T02:18:00Z,28.4073,-96.7122,0.505,11111222 
TCOON,ioos:station:TCOON:031:1,2019-11-01T03:18:00Z,28.4073,-96.7122,0.524,11111222 
TCOON,ioos:station:TCOON:031:1,2019-11-01T04:18:00Z,28.4073,-96.7122,0.495,11111222 
TCOON,ioos:station:TCOON:031:1,2019-11-01T05:18:00Z,28.4073,-96.7122,0.472,11111222 
TCOON,ioos:station:TCOON:031:1,2019-11-01T06:18:00Z,28.4073,-96.7122,0.473,11111222 
TCOON,ioos:station:TCOON:031:1,2019-11-01T07:18:00Z,28.4073,-96.7122,0.483,11111222 
TCOON,ioos:station:TCOON:031:1,2019-11-01T08:18:00Z,28.4073,-96.7122,0.52,11111222 
TCOON,ioos:station:TCOON:031:1,2019-11-01T09:18:00Z,28.4073,-96.7122,0.519,11111222 
TCOON,ioos:station:TCOON:031:1,2019-11-01T10:18:00Z,28.4073,-96.7122,0.531,11111222 
TCOON,ioos:station:TCOON:031:1,2019-11-01T11:18:00Z,28.4073,-96.7122,0.527,11111222 
TCOON,ioos:station:TCOON:031:1,2019-11-01T12:18:00Z,28.4073,-96.7122,0.53,11111222 
TCOON,ioos:station:TCOON:031:1,2019-11-01T13:18:00Z,28.4073,-96.7122,0.537,11111222 
TCOON,ioos:station:TCOON:031:1,2019-11-01T14:18:00Z,28.4073,-96.7122,0.55,11111222 
TCOON,ioos:station:TCOON:031:1,2019-11-01T15:18:00Z,28.4073,-96.7122,0.547,11111222 
TCOON,ioos:station:TCOON:031:1,2019-11-01T16:18:00Z,28.4073,-96.7122,0.57,11111222 
TCOON,ioos:station:TCOON:031:1,2019-11-01T17:18:00Z,28.4073,-96.7122,0.578,11111222 
TCOON,ioos:station:TCOON:031:1,2019-11-01T18:18:00Z,28.4073,-96.7122,0.569,11111222 
TCOON,ioos:station:TCOON:031:1,2019-11-01T19:18:00Z,28.4073,-96.7122,0.567,11111222 
TCOON,ioos:station:TCOON:031:1,2019-11-01T20:18:00Z,28.4073,-96.7122,0.566,11111222 
TCOON,ioos:station:TCOON:031:1,2019-11-01T21:18:00Z,28.4073,-96.7122,0.566,11111222 
TCOON,ioos:station:TCOON:031:1,2019-11-01T22:18:00Z,28.4073,-96.7122,0.555,11111222 
TCOON,ioos:station:TCOON:031:1,2019-11-01T23:18:00Z,28.4073,-96.7122,0.54,11111222 
TCOON,ioos:station:TCOON:031:1,2019-11-02T00:18:00Z,28.4073,-96.7122,0.522,11111222 
TCOON,ioos:station:TCOON:031:1,2019-11-02T01:18:00Z,28.4073,-96.7122,0.511,11111222 
TCOON,ioos:station:TCOON:031:1,2019-11-02T02:18:00Z,28.4073,-96.7122,0.522,11111222 
TCOON,ioos:station:TCOON:031:1,2019-11-02T03:18:00Z,28.4073,-96.7122,0.529,11111222 
TCOON,ioos:station:TCOON:031:1,2019-11-02T04:18:00Z,28.4073,-96.7122,0.525,11111222 
TCOON,ioos:station:TCOON:031:1,2019-11-02T05:18:00Z,28.4073,-96.7122,0.539,11111222 
TCOON,ioos:station:TCOON:031:1,2019-11-02T06:18:00Z,28.4073,-96.7122,0.545,11111222 
TCOON,ioos:station:TCOON:031:1,2019-11-02T07:18:00Z,28.4073,-96.7122,0.554,11111222 
TCOON,ioos:station:TCOON:031:1,2019-11-02T08:18:00Z,28.4073,-96.7122,0.569,11111222 
TCOON,ioos:station:TCOON:031:1,2019-11-02T09:18:00Z,28.4073,-96.7122,0.565,11111222 
TCOON,ioos:station:TCOON:031:1,2019-11-02T10:18:00Z,28.4073,-96.7122,0.569,11111222 
TCOON,ioos:station:TCOON:031:1,2019-11-02T11:18:00Z,28.4073,-96.7122,0.599,11111222 
TCOON,ioos:station:TCOON:031:1,2019-11-02T12:18:00Z,28.4073,-96.7122,0.61,11111222 
TCOON,ioos:station:TCOON:031:1,2019-11-02T13:18:00Z,28.4073,-96.7122,0.622,11111222 
TCOON,ioos:station:TCOON:031:1,2019-11-02T14:18:00Z,28.4073,-96.7122,0.61,11111222 
TCOON,ioos:station:TCOON:031:1,2019-11-02T15:18:00Z,28.4073,-96.7122,0.62,11111222 
TCOON,ioos:station:TCOON:031:1,2019-11-02T16:18:00Z,28.4073,-96.7122,0.635,11111222 
TCOON,ioos:station:TCOON:031:1,2019-11-02T17:18:00Z,28.4073,-96.7122,0.633,11111222 
TCOON,ioos:station:TCOON:031:1,2019-11-02T18:18:00Z,28.4073,-96.7122,0.632,11111222 
TCOON,ioos:station:TCOON:031:1,2019-11-02T19:18:00Z,28.4073,-96.7122,0.625,11111222 
TCOON,ioos:station:TCOON:031:1,2019-11-02T20:18:00Z,28.4073,-96.7122,0.62,11111222 
TCOON,ioos:station:TCOON:031:1,2019-11-02T21:18:00Z,28.4073,-96.7122,0.617,11111222 
TCOON,ioos:station:TCOON:031:1,2019-11-02T22:18:00Z,28.4073,-96.7122,0.611,11111222 
TCOON,ioos:station:TCOON:031:1,2019-11-02T23:18:00Z,28.4073,-96.7122,0.602,11111222 
TCOON,ioos:station:TCOON:031:1,2019-11-03T00:18:00Z,28.4073,-96.7122,0.597,11111222 
TCOON,ioos:station:TCOON:031:1,2019-11-03T01:18:00Z,28.4073,-96.7122,0.59,11111222 
TCOON,ioos:station:TCOON:031:1,2019-11-03T02:18:00Z,28.4073,-96.7122,0.581,11111222 
TCOON,ioos:station:TCOON:031:1,2019-11-03T03:18:00Z,28.4073,-96.7122,0.577,11111222 
TCOON,ioos:station:TCOON:031:1,2019-11-03T04:18:00Z,28.4073,-96.7122,0.572,11111222 
TCOON,ioos:station:TCOON:031:1,2019-11-03T05:18:00Z,28.4073,-96.7122,0.588,11111222 
TCOON,ioos:station:TCOON:031:1,2019-11-03T06:18:00Z,28.4073,-96.7122,0.588,11111222 
TCOON,ioos:station:TCOON:031:1,2019-11-03T07:18:00Z,28.4073,-96.7122,0.594,11111222 
TCOON,ioos:station:TCOON:031:1,2019-11-03T08:18:00Z,28.4073,-96.7122,0.602,11111222 
TCOON,ioos:station:TCOON:031:1,2019-11-03T09:18:00Z,28.4073,-96.7122,0.608,11111222 
TCOON,ioos:station:TCOON:031:1,2019-11-03T10:18:00Z,28.4073,-96.7122,0.61,11111222 
TCOON,ioos:station:TCOON:031:1,2019-11-03T11:18:00Z,28.4073,-96.7122,0.619,11111222 
TCOON,ioos:station:TCOON:031:1,2019-11-03T12:18:00Z,28.4073,-96.7122,0.628,11111222 
TCOON,ioos:station:TCOON:031:1,2019-11-03T13:18:00Z,28.4073,-96.7122,0.632,11111222 
TCOON,ioos:station:TCOON:031:1,2019-11-03T14:18:00Z,28.4073,-96.7122,0.642,11111222 
TCOON,ioos:station:TCOON:031:1,2019-11-03T15:18:00Z,28.4073,-96.7122,0.644,11111222 
TCOON,ioos:station:TCOON:031:1,2019-11-03T16:18:00Z,28.4073,-96.7122,0.651,11111222 
TCOON,ioos:station:TCOON:031:1,2019-11-03T17:30:00Z,28.4073,-96.7122,0.676,11111222 
TCOON,ioos:station:TCOON:031:1,2019-11-03T18:18:00Z,28.4073,-96.7122,0.68,11111222 
TCOON,ioos:station:TCOON:031:1,2019-11-03T19:18:00Z,28.4073,-96.7122,0.681,11111222 
TCOON,ioos:station:TCOON:031:1,2019-11-03T20:18:00Z,28.4073,-96.7122,0.673,11111222 
TCOON,ioos:station:TCOON:031:1,2019-11-03T21:18:00Z,28.4073,-96.7122,0.671,11111222 
TCOON,ioos:station:TCOON:031:1,2019-11-03T22:18:00Z,28.4073,-96.7122,0.648,11111222 
TCOON,ioos:station:TCOON:031:1,2019-11-03T23:18:00Z,28.4073,-96.7122,0.633,11111222 
TCOON,ioos:station:TCOON:031:1,2019-11-04T00:18:00Z,28.4073,-96.7122,0.62,11111222 
TCOON,ioos:station:TCOON:031:1,2019-11-04T01:18:00Z,28.4073,-96.7122,0.609,11111222 
TCOON,ioos:station:TCOON:031:1,2019-11-04T02:18:00Z,28.4073,-96.7122,0.596,11111222 
TCOON,ioos:station:TCOON:031:1,2019-11-04T03:18:00Z,28.4073,-96.7122,0.596,11111222 
TCOON,ioos:station:TCOON:031:1,2019-11-04T04:18:00Z,28.4073,-96.7122,0.599,11111222 
TCOON,ioos:station:TCOON:031:1,2019-11-04T05:18:00Z,28.4073,-96.7122,0.608,11111222 
TCOON,ioos:station:TCOON:031:1,2019-11-04T15:54:00Z,28.4073,-96.7122,0.713,11111222 
TCOON,ioos:station:TCOON:031:1,2019-11-04T16:18:00Z,28.4073,-96.7122,0.713,11111222 
TCOON,ioos:station:TCOON:031:1,2019-11-04T17:18:00Z,28.4073,-96.7122,0.722,11111222 
TCOON,ioos:station:TCOON:031:1,2019-11-04T18:18:00Z,28.4073,-96.7122,0.716,11111222 
TCOON,ioos:station:TCOON:031:1,2019-11-04T19:18:00Z,28.4073,-96.7122,0.706,11111222 
TCOON,ioos:station:TCOON:031:1,2019-11-04T20:18:00Z,28.4073,-96.7122,0.709,11111222 
TCOON,ioos:station:TCOON:031:1,2019-11-04T21:18:00Z,28.4073,-96.7122,0.703,11111222 
TCOON,ioos:station:TCOON:031:1,2019-11-04T22:18:00Z,28.4073,-96.7122,0.687,11111222 
TCOON,ioos:station:TCOON:031:1,2019-11-04T23:18:00Z,28.4073,-96.7122,0.674,11111222 
TCOON,ioos:station:TCOON:031:1,2019-11-05T00:18:00Z,28.4073,-96.7122,0.668,11111222 
TCOON,ioos:station:TCOON:031:1,2019-11-05T01:18:00Z,28.4073,-96.7122,0.659,11111222 
TCOON,ioos:station:TCOON:031:1,2019-11-05T02:18:00Z,28.4073,-96.7122,0.657,11111222 
TCOON,ioos:station:TCOON:031:1,2019-11-05T03:18:00Z,28.4073,-96.7122,0.644,11111222 
TCOON,ioos:station:TCOON:031:1,2019-11-05T04:18:00Z,28.4073,-96.7122,0.643,11111222 
TCOON,ioos:station:TCOON:031:1,2019-11-05T05:18:00Z,28.4073,-96.7122,0.647,11111222 
TCOON,ioos:station:TCOON:031:1,2019-11-05T06:18:00Z,28.4073,-96.7122,0.649,11111222 
TCOON,ioos:station:TCOON:031:1,2019-11-05T07:18:00Z,28.4073,-96.7122,0.656,11111222 
TCOON,ioos:station:TCOON:031:1,2019-11-05T08:18:00Z,28.4073,-96.7122,0.658,11111222 
TCOON,ioos:station:TCOON:031:1,2019-11-05T09:18:00Z,28.4073,-96.7122,0.67,11111222 
TCOON,ioos:station:TCOON:031:1,2019-11-05T10:18:00Z,28.4073,-96.7122,0.677,11111222 
TCOON,ioos:station:TCOON:031:1,2019-11-05T11:18:00Z,28.4073,-96.7122,0.69,11111222 
TCOON,ioos:station:TCOON:031:1,2019-11-05T12:18:00Z,28.4073,-96.7122,0.702,11111222 
TCOON,ioos:station:TCOON:031:1,2019-11-05T13:18:00Z,28.4073,-96.7122,0.706,11111222 
TCOON,ioos:station:TCOON:031:1,2019-11-05T14:18:00Z,28.4073,-96.7122,0.718,11111222 
TCOON,ioos:station:TCOON:031:1,2019-11-05T15:18:00Z,28.4073,-96.7122,0.727,11111222 
TCOON,ioos:station:TCOON:031:1,2019-11-05T16:18:00Z,28.4073,-96.7122,0.736,11111222 
TCOON,ioos:station:TCOON:031:1,2019-11-05T17:18:00Z,28.4073,-96.7122,0.743,11111222 
TCOON,ioos:station:TCOON:031:1,2019-11-05T18:18:00Z,28.4073,-96.7122,0.742,11111222 
TCOON,ioos:station:TCOON:031:1,2019-11-05T19:18:00Z,28.4073,-96.7122,0.745,11111222 
TCOON,ioos:station:TCOON:031:1,2019-11-05T20:18:00Z,28.4073,-96.7122,0.745,11111222 
TCOON,ioos:station:TCOON:031:1,2019-11-05T21:18:00Z,28.4073,-96.7122,0.732,11111222 
TCOON,ioos:station:TCOON:031:1,2019-11-05T22:18:00Z,28.4073,-96.7122,0.721,11111222 
TCOON,ioos:station:TCOON:031:1,2019-11-05T23:18:00Z,28.4073,-96.7122,0.714,11111222 
TCOON,ioos:station:TCOON:031:1,2019-11-06T00:18:00Z,28.4073,-96.7122,0.716,11111222 
TCOON,ioos:station:TCOON:031:1,2019-11-06T01:18:00Z,28.4073,-96.7122,0.693,11111222 
TCOON,ioos:station:TCOON:031:1,2019-11-06T02:18:00Z,28.4073,-96.7122,0.679,11111222 
TCOON,ioos:station:TCOON:031:1,2019-11-06T03:18:00Z,28.4073,-96.7122,0.666,11111222 
TCOON,ioos:station:TCOON:031:1,2019-11-06T04:18:00Z,28.4073,-96.7122,0.672,11111222 
TCOON,ioos:station:TCOON:031:1,2019-11-06T05:18:00Z,28.4073,-96.7122,0.652,11111222 
TCOON,ioos:station:TCOON:031:1,2019-11-06T06:18:00Z,28.4073,-96.7122,0.663,11111222 
TCOON,ioos:station:TCOON:031:1,2019-11-06T07:18:00Z,28.4073,-96.7122,0.652,11111222 
TCOON,ioos:station:TCOON:031:1,2019-11-06T08:18:00Z,28.4073,-96.7122,0.655,11111222 
TCOON,ioos:station:TCOON:031:1,2019-11-06T09:18:00Z,28.4073,-96.7122,0.657,11111222 
TCOON,ioos:station:TCOON:031:1,2019-11-06T10:18:00Z,28.4073,-96.7122,0.659,11111222 
TCOON,ioos:station:TCOON:031:1,2019-11-06T11:18:00Z,28.4073,-96.7122,0.661,11111222 
TCOON,ioos:station:TCOON:031:1,2019-11-06T12:18:00Z,28.4073,-96.7122,0.667,11111222 
TCOON,ioos:station:TCOON:031:1,2019-11-06T13:18:00Z,28.4073,-96.7122,0.674,11111222 
TCOON,ioos:station:TCOON:031:1,2019-11-06T14:18:00Z,28.4073,-96.7122,0.68,11111222 
TCOON,ioos:station:TCOON:031:1,2019-11-06T15:18:00Z,28.4073,-96.7122,0.685,11111222 
TCOON,ioos:station:TCOON:031:1,2019-11-06T16:18:00Z,28.4073,-96.7122,0.683,11111222 
TCOON,ioos:station:TCOON:031:1,2019-11-06T17:18:00Z,28.4073,-96.7122,0.69,11111222 
TCOON,ioos:station:TCOON:031:1,2019-11-06T18:18:00Z,28.4073,-96.7122,0.701,11111222 
TCOON,ioos:station:TCOON:031:1,2019-11-06T19:18:00Z,28.4073,-96.7122,0.696,11111222 
TCOON,ioos:station:TCOON:031:1,2019-11-06T20:18:00Z,28.4073,-96.7122,0.699,11111222 
TCOON,ioos:station:TCOON:031:1,2019-11-06T21:18:00Z,28.4073,-96.7122,0.696,11111222 
TCOON,ioos:station:TCOON:031:1,2019-11-06T22:18:00Z,28.4073,-96.7122,0.689,11111222 
TCOON,ioos:station:TCOON:031:1,2019-11-06T23:18:00Z,28.4073,-96.7122,0.683,11111222 
TCOON,ioos:station:TCOON:031:1,2019-11-07T00:18:00Z,28.4073,-96.7122,0.688,11111222 
TCOON,ioos:station:TCOON:031:1,2019-11-07T01:18:00Z,28.4073,-96.7122,0.672,11111222 
TCOON,ioos:station:TCOON:031:1,2019-11-07T02:18:00Z,28.4073,-96.7122,0.677,11111222 
TCOON,ioos:station:TCOON:031:1,2019-11-07T03:18:00Z,28.4073,-96.7122,0.666,11111222 
TCOON,ioos:station:TCOON:031:1,2019-11-07T04:18:00Z,28.4073,-96.7122,0.671,11111222 
TCOON,ioos:station:TCOON:031:1,2019-11-07T05:18:00Z,28.4073,-96.7122,0.669,11111222 
TCOON,ioos:station:TCOON:031:1,2019-11-07T06:18:00Z,28.4073,-96.7122,0.673,11111222 
TCOON,ioos:station:TCOON:031:1,2019-11-07T07:24:00Z,28.4073,-96.7122,0.678,11111222 
TCOON,ioos:station:TCOON:031:1,2019-11-07T08:18:00Z,28.4073,-96.7122,0.68,11111222 
TCOON,ioos:station:TCOON:031:1,2019-11-07T09:18:00Z,28.4073,-96.7122,0.687,11111222 
TCOON,ioos:station:TCOON:031:1,2019-11-07T10:18:00Z,28.4073,-96.7122,0.688,11111222 
TCOON,ioos:station:TCOON:031:1,2019-11-07T11:18:00Z,28.4073,-96.7122,0.698,11111222 
TCOON,ioos:station:TCOON:031:1,2019-11-07T12:18:00Z,28.4073,-96.7122,0.699,11111222 
TCOON,ioos:station:TCOON:031:1,2019-11-07T13:18:00Z,28.4073,-96.7122,0.709,11111222 
TCOON,ioos:station:TCOON:031:1,2019-11-07T14:18:00Z,28.4073,-96.7122,0.716,11111222 
TCOON,ioos:station:TCOON:031:1,2019-11-07T15:18:00Z,28.4073,-96.7122,0.734,11111222 
TCOON,ioos:station:TCOON:031:1,2019-11-07T16:18:00Z,28.4073,-96.7122,0.724,11111222 
TCOON,ioos:station:TCOON:031:1,2019-11-07T17:18:00Z,28.4073,-96.7122,0.729,11111222 
TCOON,ioos:station:TCOON:031:1,2019-11-07T18:18:00Z,28.4073,-96.7122,0.73,11111222 
TCOON,ioos:station:TCOON:031:1,2019-11-07T19:18:00Z,28.4073,-96.7122,0.729,11111222 
TCOON,ioos:station:TCOON:031:1,2019-11-07T20:18:00Z,28.4073,-96.7122,0.724,11111222 
TCOON,ioos:station:TCOON:031:1,2019-11-07T21:18:00Z,28.4073,-96.7122,0.726,11111222 
TCOON,ioos:station:TCOON:031:1,2019-11-07T22:18:00Z,28.4073,-96.7122,0.488,11111222 
TCOON,ioos:station:TCOON:031:1,2019-11-07T23:18:00Z,28.4073,-96.7122,0.514,11111222 
TCOON,ioos:station:TCOON:031:1,2019-11-08T00:18:00Z,28.4073,-96.7122,0.622,11111222 
TCOON,ioos:station:TCOON:031:1,2019-11-08T01:18:00Z,28.4073,-96.7122,0.706,11111222 
TCOON,ioos:station:TCOON:031:1,2019-11-08T02:18:00Z,28.4073,-96.7122,0.631,11111222 
TCOON,ioos:station:TCOON:031:1,2019-11-08T03:18:00Z,28.4073,-96.7122,0.614,11111222 
TCOON,ioos:station:TCOON:031:1,2019-11-08T04:18:00Z,28.4073,-96.7122,0.553,11111222 
TCOON,ioos:station:TCOON:031:1,2019-11-08T05:18:00Z,28.4073,-96.7122,0.546,11111222 
TCOON,ioos:station:TCOON:031:1,2019-11-08T06:18:00Z,28.4073,-96.7122,0.579,11111222 
TCOON,ioos:station:TCOON:031:1,2019-11-08T07:18:00Z,28.4073,-96.7122,0.559,11111222 
TCOON,ioos:station:TCOON:031:1,2019-11-08T08:18:00Z,28.4073,-96.7122,0.541,11111222 
TCOON,ioos:station:TCOON:031:1,2019-11-08T09:18:00Z,28.4073,-96.7122,0.529,11111222 
TCOON,ioos:station:TCOON:031:1,2019-11-08T10:18:00Z,28.4073,-96.7122,0.515,11111222 
TCOON,ioos:station:TCOON:031:1,2019-11-08T11:18:00Z,28.4073,-96.7122,0.481,11111222 
TCOON,ioos:station:TCOON:031:1,2019-11-08T12:18:00Z,28.4073,-96.7122,0.519,11111222 
TCOON,ioos:station:TCOON:031:1,2019-11-08T13:18:00Z,28.4073,-96.7122,0.549,11111222 
TCOON,ioos:station:TCOON:031:1,2019-11-08T14:18:00Z,28.4073,-96.7122,0.551,11111222 
TCOON,ioos:station:TCOON:031:1,2019-11-08T15:18:00Z,28.4073,-96.7122,0.565,11111222 
TCOON,ioos:station:TCOON:031:1,2019-11-08T16:18:00Z,28.4073,-96.7122,0.588,11111222 
TCOON,ioos:station:TCOON:031:1,2019-11-08T17:18:00Z,28.4073,-96.7122,0.595,11111222 
TCOON,ioos:station:TCOON:031:1,2019-11-08T18:18:00Z,28.4073,-96.7122,0.554,11111222 
TCOON,ioos:station:TCOON:031:1,2019-11-08T19:18:00Z,28.4073,-96.7122,0.528,11111222 
TCOON,ioos:station:TCOON:031:1,2019-11-08T20:18:00Z,28.4073,-96.7122,0.574,11111222 
TCOON,ioos:station:TCOON:031:1,2019-11-08T21:18:00Z,28.4073,-96.7122,0.595,11111222 
TCOON,ioos:station:TCOON:031:1,2019-11-08T22:18:00Z,28.4073,-96.7122,0.591,11111222 
TCOON,ioos:station:TCOON:031:1,2019-11-08T23:18:00Z,28.4073,-96.7122,0.58,11111222 
TCOON,ioos:station:TCOON:031:1,2019-11-09T00:18:00Z,28.4073,-96.7122,0.59,11111222 
TCOON,ioos:station:TCOON:031:1,2019-11-09T01:18:00Z,28.4073,-96.7122,0.614,11111222 
TCOON,ioos:station:TCOON:031:1,2019-11-09T02:18:00Z,28.4073,-96.7122,0.588,11111222 
TCOON,ioos:station:TCOON:031:1,2019-11-09T03:18:00Z,28.4073,-96.7122,0.597,11111222 
TCOON,ioos:station:TCOON:031:1,2019-11-09T04:18:00Z,28.4073,-96.7122,0.613,11111222 
TCOON,ioos:station:TCOON:031:1,2019-11-09T05:18:00Z,28.4073,-96.7122,0.586,11111222 
TCOON,ioos:station:TCOON:031:1,2019-11-09T06:18:00Z,28.4073,-96.7122,0.589,11111222 
TCOON,ioos:station:TCOON:031:1,2019-11-09T07:18:00Z,28.4073,-96.7122,0.586,11111222 
TCOON,ioos:station:TCOON:031:1,2019-11-09T08:18:00Z,28.4073,-96.7122,0.596,11111222 
TCOON,ioos:station:TCOON:031:1,2019-11-09T09:18:00Z,28.4073,-96.7122,0.593,11111222 
TCOON,ioos:station:TCOON:031:1,2019-11-09T10:18:00Z,28.4073,-96.7122,0.604,11111222 
TCOON,ioos:station:TCOON:031:1,2019-11-09T11:18:00Z,28.4073,-96.7122,0.599,11111222 
TCOON,ioos:station:TCOON:031:1,2019-11-09T12:18:00Z,28.4073,-96.7122,0.599,11111222 
TCOON,ioos:station:TCOON:031:1,2019-11-09T13:18:00Z,28.4073,-96.7122,0.619,11111222 
TCOON,ioos:station:TCOON:031:1,2019-11-09T14:18:00Z,28.4073,-96.7122,0.622,11111222 
TCOON,ioos:station:TCOON:031:1,2019-11-09T15:18:00Z,28.4073,-96.7122,0.626,11111222 
TCOON,ioos:station:TCOON:031:1,2019-11-09T16:18:00Z,28.4073,-96.7122,0.623,11111222 
TCOON,ioos:station:TCOON:031:1,2019-11-09T17:18:00Z,28.4073,-96.7122,0.63,11111222 
TCOON,ioos:station:TCOON:031:1,2019-11-09T18:18:00Z,28.4073,-96.7122,0.621,11111222 
TCOON,ioos:station:TCOON:031:1,2019-11-09T19:18:00Z,28.4073,-96.7122,0.621,11111222 
TCOON,ioos:station:TCOON:031:1,2019-11-09T20:18:00Z,28.4073,-96.7122,0.636,11111222 
TCOON,ioos:station:TCOON:031:1,2019-11-09T21:18:00Z,28.4073,-96.7122,0.638,11111222 
TCOON,ioos:station:TCOON:031:1,2019-11-09T22:18:00Z,28.4073,-96.7122,0.645,11111222 
TCOON,ioos:station:TCOON:031:1,2019-11-09T23:18:00Z,28.4073,-96.7122,0.649,11111222 
TCOON,ioos:station:TCOON:031:1,2019-11-10T00:18:00Z,28.4073,-96.7122,0.653,11111222 
TCOON,ioos:station:TCOON:031:1,2019-11-10T01:18:00Z,28.4073,-96.7122,0.652,11111222 
TCOON,ioos:station:TCOON:031:1,2019-11-10T02:18:00Z,28.4073,-96.7122,0.654,11111222 
TCOON,ioos:station:TCOON:031:1,2019-11-10T03:18:00Z,28.4073,-96.7122,0.657,11111222 
TCOON,ioos:station:TCOON:031:1,2019-11-10T04:18:00Z,28.4073,-96.7122,0.667,11111222 
TCOON,ioos:station:TCOON:031:1,2019-11-10T05:18:00Z,28.4073,-96.7122,0.676,11111222 
TCOON,ioos:station:TCOON:031:1,2019-11-10T06:18:00Z,28.4073,-96.7122,0.669,11111222 
TCOON,ioos:station:TCOON:031:1,2019-11-10T07:18:00Z,28.4073,-96.7122,0.676,11111222 
TCOON,ioos:station:TCOON:031:1,2019-11-10T08:18:00Z,28.4073,-96.7122,0.68,11111222 
TCOON,ioos:station:TCOON:031:1,2019-11-10T09:18:00Z,28.4073,-96.7122,0.686,11111222 
TCOON,ioos:station:TCOON:031:1,2019-11-10T10:18:00Z,28.4073,-96.7122,0.691,11111222 
TCOON,ioos:station:TCOON:031:1,2019-11-10T11:18:00Z,28.4073,-96.7122,0.698,11111222 
TCOON,ioos:station:TCOON:031:1,2019-11-10T12:18:00Z,28.4073,-96.7122,0.696,11111222 
TCOON,ioos:station:TCOON:031:1,2019-11-10T13:18:00Z,28.4073,-96.7122,0.694,11111222 
TCOON,ioos:station:TCOON:031:1,2019-11-10T14:18:00Z,28.4073,-96.7122,0.698,11111222 
TCOON,ioos:station:TCOON:031:1,2019-11-10T15:18:00Z,28.4073,-96.7122,0.687,11111222 
TCOON,ioos:station:TCOON:031:1,2019-11-10T16:18:00Z,28.4073,-96.7122,0.695,11111222 
TCOON,ioos:station:TCOON:031:1,2019-11-10T17:18:00Z,28.4073,-96.7122,0.695,11111222 
TCOON,ioos:station:TCOON:031:1,2019-11-10T18:18:00Z,28.4073,-96.7122,0.677,11111222 
TCOON,ioos:station:TCOON:031:1,2019-11-10T19:18:00Z,28.4073,-96.7122,0.669,11111222 
TCOON,ioos:station:TCOON:031:1,2019-11-10T20:18:00Z,28.4073,-96.7122,0.668,11111222 
TCOON,ioos:station:TCOON:031:1,2019-11-10T21:18:00Z,28.4073,-96.7122,0.67,11111222 
TCOON,ioos:station:TCOON:031:1,2019-11-10T22:18:00Z,28.4073,-96.7122,0.676,11111222 
TCOON,ioos:station:TCOON:031:1,2019-11-10T23:18:00Z,28.4073,-96.7122,0.673,11111222 
TCOON,ioos:station:TCOON:031:1,2019-11-11T00:18:00Z,28.4073,-96.7122,0.672,11111222 
TCOON,ioos:station:TCOON:031:1,2019-11-11T01:18:00Z,28.4073,-96.7122,0.685,11111222 
TCOON,ioos:station:TCOON:031:1,2019-11-11T02:18:00Z,28.4073,-96.7122,0.695,11111222 
TCOON,ioos:station:TCOON:031:1,2019-11-11T03:18:00Z,28.4073,-96.7122,0.706,11111222 
TCOON,ioos:station:TCOON:031:1,2019-11-11T04:18:00Z,28.4073,-96.7122,0.717,11111222 
TCOON,ioos:station:TCOON:031:1,2019-11-11T05:18:00Z,28.4073,-96.7122,0.725,11111222 
TCOON,ioos:station:TCOON:031:1,2019-11-11T06:18:00Z,28.4073,-96.7122,0.74,11111222 
TCOON,ioos:station:TCOON:031:1,2019-11-11T07:18:00Z,28.4073,-96.7122,0.733,11111222 
TCOON,ioos:station:TCOON:031:1,2019-11-11T08:18:00Z,28.4073,-96.7122,0.75,11111222 
TCOON,ioos:station:TCOON:031:1,2019-11-11T09:18:00Z,28.4073,-96.7122,0.747,11111222 
TCOON,ioos:station:TCOON:031:1,2019-11-11T10:18:00Z,28.4073,-96.7122,0.747,11111222 
TCOON,ioos:station:TCOON:031:1,2019-11-11T11:18:00Z,28.4073,-96.7122,0.745,11111222 
TCOON,ioos:station:TCOON:031:1,2019-11-11T12:18:00Z,28.4073,-96.7122,0.747,11111222 
TCOON,ioos:station:TCOON:031:1,2019-11-11T13:18:00Z,28.4073,-96.7122,0.739,11111222 
TCOON,ioos:station:TCOON:031:1,2019-11-11T14:18:00Z,28.4073,-96.7122,0.726,11111222 
TCOON,ioos:station:TCOON:031:1,2019-11-11T15:18:00Z,28.4073,-96.7122,0.718,11111222 
TCOON,ioos:station:TCOON:031:1,2019-11-11T16:18:00Z,28.4073,-96.7122,0.713,11111222 
TCOON,ioos:station:TCOON:031:1,2019-11-11T17:18:00Z,28.4073,-96.7122,0.699,11111222 
TCOON,ioos:station:TCOON:031:1,2019-11-11T18:18:00Z,28.4073,-96.7122,0.693,11111222 
TCOON,ioos:station:TCOON:031:1,2019-11-11T19:18:00Z,28.4073,-96.7122,0.687,11111222 
TCOON,ioos:station:TCOON:031:1,2019-11-11T20:18:00Z,28.4073,-96.7122,0.683,11111222 
TCOON,ioos:station:TCOON:031:1,2019-11-11T21:18:00Z,28.4073,-96.7122,0.669,11111222 
TCOON,ioos:station:TCOON:031:1,2019-11-11T22:18:00Z,28.4073,-96.7122,0.672,11111222 
TCOON,ioos:station:TCOON:031:1,2019-11-11T23:18:00Z,28.4073,-96.7122,0.586,11111222 
TCOON,ioos:station:TCOON:031:1,2019-11-12T00:18:00Z,28.4073,-96.7122,0.284,11111222 
TCOON,ioos:station:TCOON:031:1,2019-11-12T01:18:00Z,28.4073,-96.7122,0.268,11111222 
TCOON,ioos:station:TCOON:031:1,2019-11-12T02:18:00Z,28.4073,-96.7122,0.277,11111222 
TCOON,ioos:station:TCOON:031:1,2019-11-12T03:18:00Z,28.4073,-96.7122,0.286,11111222 
TCOON,ioos:station:TCOON:031:1,2019-11-12T04:18:00Z,28.4073,-96.7122,0.285,11111222 
TCOON,ioos:station:TCOON:031:1,2019-11-12T05:18:00Z,28.4073,-96.7122,0.355,11111222 
TCOON,ioos:station:TCOON:031:1,2019-11-12T06:18:00Z,28.4073,-96.7122,0.303,11111222 
TCOON,ioos:station:TCOON:031:1,2019-11-12T07:18:00Z,28.4073,-96.7122,0.398,11111222 
TCOON,ioos:station:TCOON:031:1,2019-11-12T08:18:00Z,28.4073,-96.7122,0.46,11111222 
TCOON,ioos:station:TCOON:031:1,2019-11-12T09:18:00Z,28.4073,-96.7122,0.411,11111222 
TCOON,ioos:station:TCOON:031:1,2019-11-12T10:18:00Z,28.4073,-96.7122,0.436,11111222 
TCOON,ioos:station:TCOON:031:1,2019-11-12T11:18:00Z,28.4073,-96.7122,0.469,11111222 
TCOON,ioos:station:TCOON:031:1,2019-11-12T12:18:00Z,28.4073,-96.7122,0.447,11111222 
TCOON,ioos:station:TCOON:031:1,2019-11-12T13:18:00Z,28.4073,-96.7122,0.401,11111222 
TCOON,ioos:station:TCOON:031:1,2019-11-12T14:18:00Z,28.4073,-96.7122,0.376,11111222 
TCOON,ioos:station:TCOON:031:1,2019-11-12T15:18:00Z,28.4073,-96.7122,0.388,11111222 
TCOON,ioos:station:TCOON:031:1,2019-11-12T16:18:00Z,28.4073,-96.7122,0.399,11111222 
TCOON,ioos:station:TCOON:031:1,2019-11-12T17:18:00Z,28.4073,-96.7122,0.419,11111222 
TCOON,ioos:station:TCOON:031:1,2019-11-12T18:18:00Z,28.4073,-96.7122,0.444,11111222 
TCOON,ioos:station:TCOON:031:1,2019-11-12T19:18:00Z,28.4073,-96.7122,0.45,11111222 
TCOON,ioos:station:TCOON:031:1,2019-11-12T20:18:00Z,28.4073,-96.7122,0.443,11111222 
TCOON,ioos:station:TCOON:031:1,2019-11-12T21:18:00Z,28.4073,-96.7122,0.42,11111222 
TCOON,ioos:station:TCOON:031:1,2019-11-12T22:18:00Z,28.4073,-96.7122,0.436,11111222 
TCOON,ioos:station:TCOON:031:1,2019-11-12T23:18:00Z,28.4073,-96.7122,0.424,11111222 
TCOON,ioos:station:TCOON:031:1,2019-11-13T00:18:00Z,28.4073,-96.7122,0.416,11111222 
TCOON,ioos:station:TCOON:031:1,2019-11-13T01:18:00Z,28.4073,-96.7122,0.432,11111222 